GLD879 SNJP-SWKT

Flight info

Callsign GLD879
Flight time 0h 37m
Altitude 4500
Route DCT 1757S04651W 1805S04733W DCT
Aircraft BE35/M-SDFGIRY/S

Departure

Time 2026-05-05 00:59
Airport João Pinheiro Airport (SNJP)

Arrival

Time 2026-05-05 01:36
Airport Catalão Airport (SWKT)
Time Latitude Longitude Altitude Speed Heading
2026-05-05 00:50 -17.78497 -46.11960 2953 ft 0 kts 127°
2026-05-05 00:53 -17.78496 -46.11962 2953 ft 1 kts 126°
2026-05-05 00:54 -17.78489 -46.11971 2956 ft 2 kts 163°
2026-05-05 00:54 -17.78481 -46.11967 2955 ft 0 kts 239°
2026-05-05 00:54 -17.78501 -46.11989 2957 ft 8 kts 202°
2026-05-05 00:54 -17.78541 -46.11977 2960 ft 5 kts 131°
2026-05-05 00:55 -17.78586 -46.11926 2960 ft 11 kts 133°
2026-05-05 00:55 -17.78660 -46.11940 2963 ft 17 kts 221°
2026-05-05 00:55 -17.78750 -46.12031 2970 ft 18 kts 223°
2026-05-05 00:55 -17.78843 -46.12120 2978 ft 18 kts 222°
2026-05-05 00:56 -17.78934 -46.12210 2985 ft 19 kts 224°
2026-05-05 00:56 -17.79028 -46.12302 2995 ft 18 kts 224°
2026-05-05 00:56 -17.79121 -46.12388 3003 ft 16 kts 218°
2026-05-05 00:56 -17.79195 -46.12438 3007 ft 8 kts 224°
2026-05-05 00:57 -17.79168 -46.12440 3009 ft 0 kts 41°
2026-05-05 00:58 -17.78956 -46.12233 2987 ft 85 kts 43°
2026-05-05 00:58 -17.78417 -46.11696 3082 ft 121 kts 44°
2026-05-05 00:58 -17.77739 -46.11063 3249 ft 137 kts 41°
2026-05-05 00:58 -17.76970 -46.10436 3437 ft 147 kts 40°
2026-05-05 00:59 -17.75949 -46.10125 3624 ft 164 kts 356°
2026-05-05 00:59 -17.74947 -46.10750 3822 ft 177 kts 309°
2026-05-05 00:59 -17.74619 -46.11987 4019 ft 181 kts 263°
2026-05-05 00:59 -17.75183 -46.13136 4228 ft 183 kts 220°
2026-05-05 01:00 -17.76311 -46.13720 4398 ft 181 kts 197°
2026-05-05 01:00 -17.77541 -46.14198 4431 ft 194 kts 198°
2026-05-05 01:00 -17.78813 -46.14733 4431 ft 195 kts 207°
2026-05-05 01:00 -17.79691 -46.15793 4422 ft 195 kts 247°
2026-05-05 01:01 -17.79988 -46.17155 4412 ft 190 kts 261°
2026-05-05 01:01 -17.80203 -46.18502 4418 ft 185 kts 258°
2026-05-05 01:01 -17.80500 -46.19843 4426 ft 190 kts 256°
2026-05-05 01:01 -17.80808 -46.21184 4423 ft 192 kts 256°
2026-05-05 01:02 -17.81113 -46.22541 4413 ft 186 kts 257°
2026-05-05 01:02 -17.81406 -46.23877 4412 ft 188 kts 256°
2026-05-05 01:02 -17.81706 -46.25215 4403 ft 190 kts 257°
2026-05-05 01:02 -17.82005 -46.26543 4438 ft 189 kts 255°
2026-05-05 01:03 -17.82316 -46.27917 4415 ft 195 kts 256°
2026-05-05 01:03 -17.82623 -46.29297 4415 ft 195 kts 257°
2026-05-05 01:03 -17.82930 -46.30672 4422 ft 193 kts 257°
2026-05-05 01:03 -17.83239 -46.32049 4419 ft 193 kts 256°
2026-05-05 01:04 -17.83547 -46.33423 4414 ft 193 kts 257°
2026-05-05 01:04 -17.84151 -46.36153 4423 ft 189 kts 258°
2026-05-05 01:04 -17.84453 -46.37506 4411 ft 190 kts 256°
2026-05-05 01:05 -17.84760 -46.38858 4424 ft 191 kts 256°
2026-05-05 01:05 -17.85070 -46.40230 4423 ft 194 kts 257°
2026-05-05 01:05 -17.85376 -46.41597 4427 ft 192 kts 257°
2026-05-05 01:05 -17.85676 -46.42977 4414 ft 194 kts 257°
2026-05-05 01:06 -17.85984 -46.44346 4423 ft 193 kts 257°
2026-05-05 01:06 -17.86286 -46.45717 4406 ft 192 kts 257°
2026-05-05 01:06 -17.86588 -46.47066 4415 ft 190 kts 257°
2026-05-05 01:06 -17.86894 -46.48424 4416 ft 192 kts 257°
2026-05-05 01:07 -17.87200 -46.49791 4409 ft 191 kts 257°
2026-05-05 01:07 -17.87401 -46.50694 4415 ft 190 kts 257°
2026-05-05 01:07 -17.87793 -46.52511 4409 ft 192 kts 257°
2026-05-05 01:07 -17.88095 -46.53848 4418 ft 190 kts 257°
2026-05-05 01:08 -17.88299 -46.54752 4420 ft 190 kts 257°
2026-05-05 01:08 -17.88604 -46.56124 4424 ft 194 kts 257°
2026-05-05 01:08 -17.88907 -46.57481 4408 ft 190 kts 257°
2026-05-05 01:08 -17.89209 -46.58833 4407 ft 189 kts 257°
2026-05-05 01:09 -17.89502 -46.60165 4413 ft 188 kts 257°
2026-05-05 01:09 -17.89798 -46.61513 4414 ft 189 kts 257°
2026-05-05 01:09 -17.90095 -46.62853 4413 ft 191 kts 257°
2026-05-05 01:09 -17.90404 -46.64225 4415 ft 193 kts 257°
2026-05-05 01:10 -17.90704 -46.65580 4424 ft 192 kts 257°
2026-05-05 01:10 -17.91009 -46.66970 4418 ft 196 kts 257°
2026-05-05 01:10 -17.91317 -46.68336 4426 ft 193 kts 257°
2026-05-05 01:10 -17.91624 -46.69710 4421 ft 190 kts 257°
2026-05-05 01:11 -17.91909 -46.71040 4415 ft 187 kts 257°
2026-05-05 01:11 -17.92205 -46.72387 4418 ft 190 kts 257°
2026-05-05 01:11 -17.92518 -46.73759 4413 ft 195 kts 257°
2026-05-05 01:11 -17.92822 -46.75125 4422 ft 194 kts 258°
2026-05-05 01:12 -17.93119 -46.76508 4416 ft 192 kts 257°
2026-05-05 01:12 -17.93431 -46.77892 4423 ft 196 kts 256°
2026-05-05 01:12 -17.93743 -46.79298 4406 ft 195 kts 257°
2026-05-05 01:12 -17.94040 -46.80659 4422 ft 193 kts 258°
2026-05-05 01:13 -17.94348 -46.82058 4430 ft 198 kts 257°
2026-05-05 01:13 -17.94658 -46.83471 4409 ft 201 kts 257°
2026-05-05 01:13 -17.94974 -46.84871 4438 ft 195 kts 256°
2026-05-05 01:13 -17.95260 -46.86289 4399 ft 196 kts 260°
2026-05-05 01:14 -17.95510 -46.87677 4420 ft 195 kts 259°
2026-05-05 01:14 -17.95781 -46.89086 4411 ft 198 kts 259°
2026-05-05 01:14 -17.96054 -46.90478 4408 ft 195 kts 258°
2026-05-05 01:14 -17.96325 -46.91884 4415 ft 200 kts 259°
2026-05-05 01:15 -17.96600 -46.93318 4412 ft 197 kts 259°
2026-05-05 01:15 -17.96868 -46.94710 4425 ft 195 kts 259°
2026-05-05 01:15 -17.97128 -46.96111 4417 ft 194 kts 259°
2026-05-05 01:15 -17.97397 -46.97508 4411 ft 195 kts 259°
2026-05-05 01:16 -17.97664 -46.98873 4418 ft 192 kts 259°
2026-05-05 01:16 -17.97928 -47.00244 4423 ft 192 kts 259°
2026-05-05 01:16 -17.98188 -47.01628 4419 ft 193 kts 259°
2026-05-05 01:16 -17.98460 -47.03030 4413 ft 194 kts 258°
2026-05-05 01:17 -17.98724 -47.04394 4420 ft 188 kts 259°
2026-05-05 01:17 -17.98977 -47.05741 4417 ft 187 kts 259°
2026-05-05 01:17 -17.99238 -47.07095 4420 ft 185 kts 258°
2026-05-05 01:17 -17.99494 -47.08428 4432 ft 192 kts 259°
2026-05-05 01:18 -17.99759 -47.09826 4431 ft 196 kts 259°
2026-05-05 01:18 -18.00028 -47.11232 4410 ft 196 kts 259°
2026-05-05 01:18 -18.00287 -47.12614 4429 ft 195 kts 259°
2026-05-05 01:18 -18.00557 -47.14021 4414 ft 198 kts 259°
2026-05-05 01:19 -18.00834 -47.15433 4425 ft 195 kts 259°
2026-05-05 01:19 -18.01096 -47.16824 4421 ft 192 kts 259°
2026-05-05 01:19 -18.01356 -47.18191 4413 ft 190 kts 259°
2026-05-05 01:19 -18.01612 -47.19535 4413 ft 187 kts 259°
2026-05-05 01:20 -18.01866 -47.20874 4419 ft 186 kts 258°
2026-05-05 01:20 -18.02123 -47.22221 4421 ft 187 kts 259°
2026-05-05 01:20 -18.02379 -47.23564 4418 ft 188 kts 259°
2026-05-05 01:20 -18.02633 -47.24904 4418 ft 188 kts 259°
2026-05-05 01:21 -18.02887 -47.26240 4421 ft 188 kts 260°
2026-05-05 01:21 -18.03145 -47.27598 4417 ft 187 kts 259°
2026-05-05 01:21 -18.03401 -47.28953 4423 ft 190 kts 259°
2026-05-05 01:21 -18.03663 -47.30308 4418 ft 192 kts 259°
2026-05-05 01:22 -18.03932 -47.31693 4428 ft 192 kts 258°
2026-05-05 01:22 -18.04184 -47.33070 4431 ft 193 kts 259°
2026-05-05 01:22 -18.04447 -47.34456 4434 ft 195 kts 258°
2026-05-05 01:22 -18.04712 -47.35846 4427 ft 194 kts 259°
2026-05-05 01:23 -18.04974 -47.37238 4426 ft 195 kts 259°
2026-05-05 01:23 -18.05240 -47.38637 4418 ft 194 kts 259°
2026-05-05 01:23 -18.05507 -47.40028 4422 ft 192 kts 259°
2026-05-05 01:23 -18.05763 -47.41399 4421 ft 195 kts 259°
2026-05-05 01:24 -18.06024 -47.42789 4416 ft 192 kts 259°
2026-05-05 01:24 -18.06287 -47.44183 4417 ft 193 kts 258°
2026-05-05 01:24 -18.06550 -47.45555 4414 ft 191 kts 259°
2026-05-05 01:24 -18.06815 -47.46927 4430 ft 193 kts 258°
2026-05-05 01:25 -18.07086 -47.48330 4429 ft 196 kts 259°
2026-05-05 01:25 -18.07335 -47.49729 4429 ft 193 kts 260°
2026-05-05 01:25 -18.07596 -47.51107 4430 ft 192 kts 258°
2026-05-05 01:25 -18.07859 -47.52490 4423 ft 195 kts 259°
2026-05-05 01:26 -18.08115 -47.53878 4431 ft 193 kts 259°
2026-05-05 01:26 -18.08410 -47.55259 4428 ft 195 kts 253°
2026-05-05 01:26 -18.08901 -47.56587 4428 ft 196 kts 245°
2026-05-05 01:26 -18.09440 -47.57896 4416 ft 192 kts 246°
2026-05-05 01:27 -18.09939 -47.59181 4415 ft 190 kts 247°
2026-05-05 01:27 -18.10422 -47.60453 4433 ft 188 kts 247°
2026-05-05 01:27 -18.10921 -47.61756 4424 ft 193 kts 248°
2026-05-05 01:27 -18.11425 -47.63068 4424 ft 196 kts 247°
2026-05-05 01:28 -18.11943 -47.64423 4412 ft 199 kts 248°
2026-05-05 01:28 -18.12459 -47.65759 4410 ft 196 kts 248°
2026-05-05 01:28 -18.12969 -47.67092 4417 ft 197 kts 248°
2026-05-05 01:28 -18.13472 -47.68408 4429 ft 197 kts 248°
2026-05-05 01:29 -18.13985 -47.69752 4412 ft 197 kts 247°
2026-05-05 01:29 -18.14494 -47.71079 4421 ft 199 kts 248°
2026-05-05 01:29 -18.15009 -47.72439 4416 ft 199 kts 248°
2026-05-05 01:29 -18.15519 -47.73779 4420 ft 198 kts 248°
2026-05-05 01:30 -18.16035 -47.75120 4407 ft 193 kts 247°
2026-05-05 01:30 -18.16538 -47.76426 4415 ft 196 kts 248°
2026-05-05 01:30 -18.17042 -47.77758 4410 ft 195 kts 248°
2026-05-05 01:30 -18.17546 -47.79075 4410 ft 195 kts 248°
2026-05-05 01:31 -18.18050 -47.80390 4415 ft 195 kts 248°
2026-05-05 01:31 -18.18544 -47.81686 4280 ft 185 kts 248°
2026-05-05 01:31 -18.19005 -47.82913 3876 ft 178 kts 248°
2026-05-05 01:31 -18.19476 -47.84124 3458 ft 181 kts 247°
2026-05-05 01:32 -18.19927 -47.85306 3399 ft 165 kts 248°
2026-05-05 01:32 -18.20325 -47.86356 3402 ft 144 kts 248°
2026-05-05 01:32 -18.20676 -47.87276 3406 ft 131 kts 249°
2026-05-05 01:32 -18.21019 -47.88173 3406 ft 133 kts 248°
2026-05-05 01:33 -18.21361 -47.89072 3402 ft 133 kts 247°
2026-05-05 01:33 -18.21705 -47.89972 3402 ft 130 kts 248°
2026-05-05 01:33 -18.21640 -47.90871 3405 ft 122 kts 314°
2026-05-05 01:33 -18.20999 -47.91441 3419 ft 124 kts 328°
2026-05-05 01:34 -18.20327 -47.92022 3424 ft 126 kts 328°
2026-05-05 01:34 -18.19626 -47.92605 3425 ft 130 kts 329°
2026-05-05 01:34 -18.18846 -47.92969 3449 ft 115 kts 17°
2026-05-05 01:34 -18.18318 -47.92497 3440 ft 105 kts 82°
2026-05-05 01:35 -18.18612 -47.91811 3364 ft 114 kts 134°
2026-05-05 01:35 -18.19273 -47.91264 3194 ft 122 kts 142°
2026-05-05 01:35 -18.19963 -47.90843 2987 ft 109 kts 151°
2026-05-05 01:35 -18.20623 -47.90505 2789 ft 103 kts 153°
2026-05-05 01:36 -18.21250 -47.90181 2645 ft 95 kts 153°
2026-05-05 01:36 -18.21660 -47.89973 2634 ft 37 kts 155°
2026-05-05 01:36 -18.21833 -47.89887 2631 ft 27 kts 153°
2026-05-05 01:36 -18.21946 -47.89846 2630 ft 15 kts 209°
2026-05-05 01:37 -18.22000 -47.89937 2631 ft 12 kts 243°
2026-05-05 01:37 -18.22006 -47.90015 2631 ft 8 kts 269°
2026-05-05 01:37 -18.22012 -47.90041 2631 ft 0 kts 247°